Location: Asheville, NC
(35.6000°N, 82.5500°W)
Time: 20:13:29

Vanguard 2 Rocket - Pass Details

Date: 17 March 2018
Orbit: 554 x 3327 km, 32.9° (Epoch: 19 March)

Event Time Altitude Azimuth Distance (km) Brightness Sun altitude
Rises 21:21:04 0° 272° (W) 2,899 10.9 -21.3°
Reaches altitude 10° 21:23:07 10° 264° (W) 2,133 9.8 -21.7°
Maximum altitude 21:27:39 40° 194° (SSW) 1,272 7.6 -22.5°
Enters shadow 21:29:46 31° 154° (SSE) 1,664 7.8 -23.0°
Drops below altitude 10° 21:34:42 10° 128° (SE) 3,328 - -23.9°
Sets 21:38:43 0° 122° (ESE) 4,775 - -24.7°
